Simultaneous Nadir Overpasses (SNOs) Predictions

Prediction of SNOs between FY3D and METOP-C Satellite Orbit:

Table of predicted SNOs for the next 14.0 days since TLE Epoch: 6/25/2022
Index Date (FY3D) Time (FY3D) Lat,Lon (FY3D) SZA (FY3D ) Date (METOP-C) Time (METOP-C) Lat,Lon (METOP-C) SZA (METOP-C ) Distance(km) Time Diff (sec)
1 07/01/2022 01:55:03 -74.74, -35.70 128.30 07/01/2022 01:56:09 -74.69, -32.61 128.46 90.75 66
2 07/01/2022 02:45:44 74.46, 132.37 51.40 07/01/2022 02:46:54 74.38, 133.92 51.26 46.82 70
3 07/01/2022 03:36:27 -74.39, -60.12 128.68 07/01/2022 03:37:38 -74.33, -58.90 128.79 37.23 71
4 07/01/2022 04:27:08 74.10, 107.92 51.02 07/01/2022 04:28:21 74.12, 107.90 51.02 1.97 73
5 07/01/2022 05:17:53 -74.13, -84.83 128.96 07/01/2022 05:19:04 -74.11, -84.78 128.98 2.05 71
6 07/01/2022 06:08:39 74.08, 82.59 51.00 07/01/2022 06:09:43 74.10, 82.51 51.01 2.64 64
7 07/01/2022 06:59:24 -74.11,-110.17 128.97 07/01/2022 07:00:26 -74.09,-110.17 129.00 1.88 62
8 07/01/2022 07:50:11 74.12, 57.12 51.04 07/01/2022 07:51:04 74.12, 57.24 51.04 3.82 53
9 07/01/2022 08:40:55 -74.09,-135.51 128.98 07/01/2022 08:41:48 -74.07,-135.56 129.01 2.89 53
10 07/01/2022 09:31:42 74.10, 31.79 51.03 07/01/2022 09:32:26 74.10, 31.85 51.03 2.15 44
11 07/01/2022 10:22:26 -74.08,-160.84 129.00 07/01/2022 10:23:09 -74.10,-160.83 128.98 2.76 43
12 07/01/2022 11:13:13 74.08, 6.45 51.02 07/01/2022 11:13:48 74.08, 6.46 51.01 0.49 35
13 07/01/2022 12:03:57 -74.06, 173.82 129.01 07/01/2022 12:04:31 -74.08, 173.78 128.99 2.61 34
14 07/01/2022 12:54:44 74.07, -18.89 51.00 07/01/2022 12:55:10 74.06, -18.93 51.00 1.18 26
15 07/01/2022 13:45:28 -74.04, 148.48 129.02 07/01/2022 13:45:53 -74.06, 148.39 129.01 3.39 25
16 07/01/2022 14:36:15 74.05, -44.23 50.99 07/01/2022 14:36:32 74.04, -44.32 50.98 2.84 17
17 07/01/2022 15:27:00 -74.08, 123.02 128.98 07/01/2022 15:27:14 -74.09, 123.12 128.97 3.39 14
18 07/01/2022 16:17:47 74.08, -69.69 51.03 07/01/2022 16:17:53 74.07, -69.59 51.02 3.29 6
19 07/01/2022 17:08:31 -74.06, 97.68 129.00 07/01/2022 17:08:36 -74.07, 97.73 128.99 1.80 5
20 07/01/2022 17:59:18 74.06, -95.03 51.02 07/01/2022 17:59:15 74.05, -94.98 51.00 2.13 3
21 07/01/2022 18:50:02 -74.04, 72.34 129.01 07/01/2022 18:49:58 -74.05, 72.34 129.00 0.64 4
22 07/01/2022 19:40:49 74.05,-120.36 51.00 07/01/2022 19:40:37 74.03,-120.37 50.99 1.93 12
23 07/01/2022 20:31:33 -74.03, 47.00 129.02 07/01/2022 20:31:20 -74.03, 46.95 129.02 1.73 13
24 07/01/2022 21:22:20 74.03,-145.70 50.99 07/01/2022 21:21:59 74.01,-145.76 50.97 2.91 21
25 07/01/2022 22:13:04 -74.01, 21.67 129.03 07/01/2022 22:12:42 -74.01, 21.56 129.03 3.31 22
26 07/01/2022 23:03:51 74.01,-171.04 50.98 07/01/2022 23:03:20 74.04,-171.03 51.01 2.73 31
27 07/01/2022 23:54:36 -74.04, -3.80 128.99 07/01/2022 23:54:03 -74.04, -3.71 129.00 2.64 33
28 07/02/2022 00:45:22 74.00, 163.62 50.97 07/02/2022 00:44:42 74.02, 163.58 50.99 2.54 40
29 07/02/2022 01:36:07 -74.03, -29.13 129.01 07/02/2022 01:35:25 -74.02, -29.10 129.01 1.45 42
30 07/02/2022 02:26:53 73.98, 138.28 50.95 07/02/2022 02:26:04 74.00, 138.19 50.98 3.30 49
31 07/02/2022 03:17:38 -74.01, -54.47 129.02 07/02/2022 03:16:47 -74.00, -54.49 129.02 1.62 51
32 07/02/2022 04:08:25 74.01, 112.82 50.99 07/02/2022 04:07:25 74.03, 112.92 51.01 3.42 60
33 07/02/2022 04:59:09 -73.99, -79.81 129.03 07/02/2022 04:58:09 -73.98, -79.88 129.04 2.91 60
34 07/02/2022 05:49:56 74.00, 87.48 50.98 07/02/2022 05:48:47 74.01, 87.53 51.00 1.81 69
35 07/02/2022 06:40:40 -73.98,-105.15 129.04 07/02/2022 06:39:30 -74.00,-105.15 129.01 3.10 70
36 07/02/2022 07:31:25 73.88, 62.39 50.86 07/02/2022 07:30:11 73.89, 61.90 50.89 14.97 74
37 07/02/2022 08:22:08 -73.81,-130.13 129.21 07/02/2022 08:20:55 -73.84,-130.90 129.15 24.03 73
38 07/02/2022 09:12:49 73.52, 37.88 50.48 07/02/2022 09:11:40 73.52, 35.70 50.57 68.72 69
39 07/02/2022 10:03:31 -73.45,-154.65 129.60 07/02/2022 10:02:23 -73.47,-157.10 129.48 77.46 68



Historial Predications of SNOs between FY3D and METOP-C
